Sturgis, MI

5:40 AM EST on December 06, 2019 (GMT -0500)
Kirsch Municipal

Weather History for KIRS - October, 2019

Change the Weather History Date:

Thursday, October 31, 2019

  Actual Average (KHAI) Record (KHAI)
Temperature  
Mean Temperature 40 °F -  
Max Temperature 45 °F 59 °F 83 °F (1950)
Min Temperature 34 °F 38 °F 18 °F (1988)
Degree Days  
Heating Degree Days 26    
Moisture  
Dew Point 38 °F    
Average Humidity 88    
Maximum Humidity 90    
Minimum Humidity 86    
Precipitation  
Precipitation 0.50 in - - ()
Sea Level Pressure  
Sea Level Pressure 29.73 in    
Wind  
Wind Speed 6 mph ()    
Max Wind Speed 17 mph    
Max Gust Speed 26 mph    
Visibility 4.9 miles    
Events Rain , Snow    
Averages and records for this station are not official NWS values.
T = Trace of Precipitation, MM = Missing Value Source: Averaged Metar Reports

Daily Weather History Graph

Daily Weather History Graph

Search for Another Location

Airport or City:

Astronomy

Oct. 31, 2019 Rise Set
Actual Time 8:12 AM EDT 6:37 PM EDT
Civil Twilight 7:43 AM EDT 7:06 PM EDT
Nautical Twilight 7:10 AM EDT 7:39 PM EDT
Astronomical Twilight 6:38 AM EDT 8:11 PM EDT
Moon 12:02 PM EDT (10/31) 9:30 PM EDT (10/31)
Length of Visible Light 11h 22m
Length of Day
10h 25m
Waxing Crescent, 15% of the Moon is Illuminated
Oct 31
Waxing Crescent
Nov 4
First Quarter
Nov 12
Full
Nov 19
Last Quarter
Nov 26
New

Hourly Weather History & Observations

Time (EDT) Temp. Windchill Dew Point Humidity Pressure Visibility Wind Dir Wind Speed Gust Speed Precip Events Conditions
12:15 AM 43.0 °F 39.5 °F 39.7 °F 88% 29.88 in 3.0 mi NNE 5.8 mph - N/A   Overcast
12:35 AM 43.0 °F 38.8 °F 39.7 °F 88% 29.87 in 3.0 mi NE 6.9 mph - N/A   Overcast
12:36 AM 43.0 °F 38.8 °F 39.7 °F 88% 29.87 in 4.0 mi NE 6.9 mph - N/A   Overcast
12:55 AM 43.2 °F 39.7 °F 40.1 °F 89% 29.85 in 3.0 mi NE 5.8 mph - N/A   Overcast
1:18 AM 43.2 °F 39.7 °F 40.1 °F 89% 29.86 in 3.0 mi NNE 5.8 mph - N/A   Overcast
1:36 AM 43.2 °F 40.5 °F 40.1 °F 89% 29.85 in 3.0 mi NE 4.6 mph - N/A   Overcast
1:55 AM 43.2 °F 39.0 °F 40.1 °F 89% 29.84 in 2.5 mi North 6.9 mph - N/A   Overcast
2:15 AM 43.0 °F 39.5 °F 39.7 °F 88% 29.82 in 2.0 mi NE 5.8 mph - N/A   Overcast
2:39 AM 43.0 °F 38.8 °F 40.1 °F 90% 29.79 in 2.0 mi NE 6.9 mph - N/A   Overcast
2:57 AM 43.0 °F 39.5 °F 39.9 °F 89% 29.79 in 2.0 mi NE 5.8 mph - N/A   Overcast
3:15 AM 43.2 °F 40.5 °F 40.1 °F 89% 29.78 in 2.0 mi NE 4.6 mph - N/A   Overcast
3:35 AM 43.2 °F 39.0 °F 40.1 °F 89% 29.77 in 2.5 mi NE 6.9 mph - N/A   Overcast
3:55 AM 43.2 °F 38.4 °F 40.1 °F 89% 29.76 in 2.5 mi NE 8.1 mph - N/A   Overcast
3:59 AM 43.2 °F 39.0 °F 40.1 °F 89% 29.76 in 2.5 mi NNE 6.9 mph - N/A   Overcast
4:18 AM 43.2 °F 37.9 °F 40.1 °F 89% 29.74 in 2.0 mi NE 9.2 mph - N/A   Overcast
4:36 AM 43.3 °F 39.2 °F 40.1 °F 88% 29.73 in 2.0 mi NE 6.9 mph - N/A   Overcast
4:55 AM 43.3 °F 40.7 °F 40.1 °F 88% 29.76 in 2.5 mi NW 4.6 mph - N/A Rain Light Rain
4:56 AM 43.3 °F 40.7 °F 40.1 °F 88% 29.76 in 2.5 mi NW 4.6 mph - N/A Rain Light Rain
5:15 AM 43.3 °F 40.7 °F 40.3 °F 89% 29.74 in 4.0 mi NE 4.6 mph - 0.02 in Rain Light Rain
5:16 AM 43.3 °F 41.7 °F 40.3 °F 89% 29.74 in 4.0 mi NE 3.5 mph - 0.02 in Rain Light Rain
5:39 AM 43.3 °F 40.7 °F 40.3 °F 89% 29.74 in 4.0 mi NNW 4.6 mph - 0.04 in Rain Rain
5:57 AM 43.5 °F - 40.3 °F 88% 29.75 in 4.0 mi Calm Calm - 0.09 in Rain Rain
6:15 AM 43.3 °F - 40.1 °F 88% 29.74 in 3.0 mi Calm Calm - 0.04 in   Overcast
6:16 AM 43.3 °F - 40.1 °F 88% 29.74 in 3.0 mi Calm Calm - 0.05 in   Overcast
6:35 AM 43.3 °F 41.7 °F 40.1 °F 88% 29.72 in 10.0 mi NE 3.5 mph - 0.07 in Rain Light Rain
6:36 AM 43.3 °F 41.7 °F 40.1 °F 88% 29.71 in 10.0 mi ENE 3.5 mph - 0.07 in Rain Rain
6:55 AM 43.3 °F 41.7 °F 40.1 °F 88% 29.69 in 7.0 mi NNE 3.5 mph - 0.11 in Rain Rain
7:00 AM 43.3 °F 41.7 °F 40.1 °F 88% 29.69 in 10.0 mi North 3.5 mph - N/A Rain Rain
7:18 AM 43.5 °F 41.9 °F 40.3 °F 88% 29.70 in 7.0 mi NNW 3.5 mph - 0.03 in Rain Rain
7:36 AM 43.3 °F 40.7 °F 40.1 °F 88% 29.66 in 10.0 mi NE 4.6 mph - 0.05 in Rain Light Rain
7:55 AM 43.3 °F 39.2 °F 40.3 °F 89% 29.69 in 10.0 mi WNW 6.9 mph - 0.08 in Rain Rain
7:56 AM 43.3 °F 39.9 °F 40.3 °F 89% 29.69 in 10.0 mi WNW 5.8 mph - 0.08 in Rain Rain
8:15 AM 43.2 °F 39.7 °F 40.1 °F 89% 29.64 in 10.0 mi NNE 5.8 mph - 0.01 in Rain Rain
8:16 AM 43.2 °F 39.7 °F 40.1 °F 89% 29.64 in 10.0 mi North 5.8 mph - 0.02 in Rain Rain
8:35 AM 43.2 °F 38.4 °F 40.1 °F 89% 29.64 in 10.0 mi NNW 8.1 mph - 0.03 in Rain Light Rain
8:40 AM 43.2 °F 39.0 °F 40.1 °F 89% 29.64 in 10.0 mi North 6.9 mph - 0.03 in Rain Light Rain
8:58 AM 43.0 °F 38.2 °F 39.7 °F 88% 29.64 in 10.0 mi North 8.1 mph - 0.04 in Rain Light Rain
9:35 AM 43.2 °F 40.5 °F 40.1 °F 89% 29.64 in 10.0 mi North 4.6 mph - 0.03 in Rain Rain
9:36 AM 43.2 °F 39.7 °F 40.1 °F 89% 29.64 in 10.0 mi North 5.8 mph - 0.03 in Rain Rain
9:55 AM 43.3 °F 40.7 °F 40.1 °F 88% 29.62 in 5.0 mi NNE 4.6 mph - 0.03 in   Drizzle
9:56 AM 43.3 °F 39.9 °F 40.1 °F 88% 29.62 in 5.0 mi NNE 5.8 mph - 0.03 in   Drizzle
10:19 AM 43.7 °F 40.3 °F 40.3 °F 88% 29.61 in 3.0 mi NNE 5.8 mph - 0.01 in Rain Light Rain
10:37 AM 43.7 °F 39.7 °F 40.5 °F 88% 29.58 in 4.0 mi NNE 6.9 mph - 0.01 in   Light Drizzle
10:55 AM 44.1 °F 40.8 °F 41.0 °F 89% 29.59 in 4.0 mi NNE 5.8 mph - 0.01 in   Drizzle
10:56 AM 44.1 °F 40.8 °F 41.0 °F 89% 29.59 in 4.0 mi NNE 5.8 mph - 0.01 in   Drizzle
11:15 AM 44.6 °F 42.2 °F 41.2 °F 88% 29.60 in 2.0 mi NNW 4.6 mph - N/A   Drizzle
11:16 AM 44.6 °F 43.1 °F 41.2 °F 88% 29.60 in 2.0 mi NNW 3.5 mph - N/A   Drizzle
11:35 AM 44.6 °F 42.2 °F 41.4 °F 88% 29.59 in 1.8 mi NNW 4.6 mph - N/A   Heavy Drizzle
11:40 AM 44.8 °F 43.3 °F 41.5 °F 88% 29.59 in 1.5 mi North 3.5 mph - 0.01 in   Heavy Drizzle
11:58 AM 45.5 °F 42.5 °F 42.3 °F 88% 29.57 in 3.0 mi NNE 5.8 mph - 0.01 in   Drizzle
12:16 PM 45.7 °F 42.0 °F 42.6 °F 89% 29.56 in 4.0 mi NNE 6.9 mph - N/A   Light Drizzle
12:35 PM 45.7 °F 42.7 °F 42.6 °F 89% 29.55 in 3.0 mi NNE 5.8 mph - N/A   Unknown
12:36 PM 45.7 °F 42.0 °F 42.6 °F 89% 29.55 in 3.0 mi NE 6.9 mph - N/A   Unknown
12:55 PM 45.3 °F 42.3 °F 41.9 °F 88% 29.55 in 2.5 mi NE 5.8 mph - N/A   Drizzle
12:56 PM 45.3 °F 42.3 °F 41.9 °F 88% 29.55 in 2.5 mi NE 5.8 mph - N/A   Drizzle
1:19 PM 45.0 °F 41.2 °F 41.9 °F 89% 29.54 in 2.0 mi NNE 6.9 mph - N/A Rain Light Rain
1:37 PM 44.8 °F 41.0 °F 41.7 °F 89% 29.54 in 2.5 mi NNE 6.9 mph - N/A Rain Light Rain
1:55 PM 45.1 °F 42.0 °F 41.9 °F 88% 29.54 in 2.0 mi North 5.8 mph - N/A   Drizzle
2:15 PM 45.3 °F 41.6 °F 42.1 °F 88% 29.54 in 3.0 mi North 6.9 mph - N/A   Light Drizzle
2:35 PM 44.8 °F 39.9 °F 41.5 °F 88% 29.54 in 1.5 mi NNW 9.2 mph - 0.01 in Rain Heavy Rain
2:58 PM 43.9 °F 38.8 °F 41.0 °F 90% 29.54 in 1.5 mi NNW 9.2 mph - 0.02 in Rain Light Rain
3:16 PM 43.5 °F 38.3 °F 40.3 °F 88% 29.55 in 3.0 mi NNW 9.2 mph 17.3 mph N/A   Drizzle
3:35 PM 42.6 °F 36.3 °F 39.2 °F 88% 29.56 in 5.0 mi North 11.5 mph - 0.01 in Rain Light Rain
3:55 PM 41.9 °F 36.3 °F 38.3 °F 87% 29.57 in 7.0 mi NNW 9.2 mph - 0.01 in Rain Light Rain
4:19 PM 40.6 °F 33.8 °F 37.0 °F 87% 29.59 in 3.0 mi NNW 11.5 mph 19.6 mph 0.01 in Rain Light Rain
4:37 PM 40.5 °F 34.1 °F 37.0 °F 88% 29.59 in 3.0 mi NNW 10.4 mph - 0.01 in Rain Light Rain
4:55 PM 39.6 °F 31.3 °F 35.8 °F 86% 29.61 in 3.0 mi NNW 15.0 mph 21.9 mph 0.02 in Rain Light Rain
5:15 PM 38.3 °F 31.4 °F 34.7 °F 87% 29.63 in 3.0 mi NNW 10.4 mph - 0.02 in Rain Light Rain
5:35 PM 36.5 °F 26.7 °F 32.9 °F 87% 29.65 in 2.0 mi NNW 17.3 mph 26.5 mph 0.03 in Snow Light Snow
5:58 PM 35.2 °F 27.1 °F 32.2 °F 89% 29.67 in 1.5 mi NNW 11.5 mph 18.4 mph 0.03 in Snow Light Snow
6:16 PM 36.0 °F 27.1 °F 32.9 °F 89% 29.69 in 5.0 mi NNW 13.8 mph 21.9 mph N/A Snow Light Snow
6:35 PM 36.0 °F 27.1 °F 32.7 °F 88% 29.72 in 5.0 mi NW 13.8 mph 20.7 mph 0.01 in Snow Light Snow
6:55 PM 35.6 °F 29.2 °F 32.4 °F 88% 29.75 in 3.0 mi NW 8.1 mph 18.4 mph 0.01 in Snow Light Snow
6:56 PM 35.6 °F 28.0 °F 32.2 °F 87% 29.75 in 3.0 mi NW 10.4 mph 16.1 mph 0.01 in Snow Light Snow
7:19 PM 34.7 °F 26.9 °F 32.0 °F 90% 29.78 in 1.8 mi NW 10.4 mph 16.1 mph 0.01 in Snow Light Snow
7:37 PM 34.7 °F 27.5 °F 32.0 °F 90% 29.80 in 2.0 mi NW 9.2 mph 16.1 mph 0.01 in Snow Light Snow
7:55 PM 34.9 °F 27.7 °F 32.0 °F 89% 29.82 in 4.0 mi NW 9.2 mph - 0.02 in Snow Light Snow
8:15 PM 35.8 °F 28.8 °F 32.9 °F 89% 29.84 in 10.0 mi NNW 9.2 mph 19.6 mph N/A Snow Light Snow
8:16 PM 35.8 °F 28.3 °F 32.9 °F 89% 29.84 in 10.0 mi NNW 10.4 mph 19.6 mph N/A Rain Light Rain
8:35 PM 36.5 °F 29.7 °F 32.9 °F 87% 29.87 in 7.0 mi NW 9.2 mph 19.6 mph N/A Snow Light Snow
8:40 PM 36.3 °F 29.5 °F 32.7 °F 87% 29.87 in 5.0 mi NW 9.2 mph - N/A Snow Light Snow
8:58 PM 35.6 °F 29.2 °F 32.5 °F 89% 29.89 in 4.0 mi WNW 8.1 mph - 0.01 in Snow Light Snow
9:35 PM 35.6 °F 29.2 °F 32.4 °F 88% 29.93 in 7.0 mi WNW 8.1 mph - 0.01 in Snow Light Snow
9:36 PM 35.6 °F 29.2 °F 32.5 °F 89% 29.93 in 7.0 mi WNW 8.1 mph - 0.01 in Snow Light Snow
9:55 PM 36.5 °F 29.2 °F 33.4 °F 89% 29.95 in 10.0 mi WNW 10.4 mph 20.7 mph 0.01 in Snow Light Snow
9:56 PM 36.5 °F 28.2 °F 33.4 °F 89% 29.95 in 10.0 mi WNW 12.7 mph 20.7 mph 0.01 in Snow Light Snow
10:19 PM 36.3 °F 28.0 °F 32.9 °F 87% 29.97 in 10.0 mi West 12.7 mph 19.6 mph N/A   Overcast
10:37 PM 36.0 °F 26.7 °F 32.4 °F 87% 29.98 in 10.0 mi WNW 15.0 mph 24.2 mph N/A Snow Light Snow
10:55 PM 35.8 °F 27.3 °F 32.4 °F 87% 29.99 in 7.0 mi WNW 12.7 mph 16.1 mph N/A Snow Light Snow
11:15 PM 35.1 °F 25.5 °F 32.0 °F 89% 30.01 in 4.0 mi West 15.0 mph - N/A Snow Light Snow
11:16 PM 35.1 °F 25.5 °F 32.0 °F 89% 30.01 in 4.0 mi West 15.0 mph - N/A Snow Light Snow
11:35 PM 35.1 °F 24.8 °F 32.0 °F 89% 30.02 in 7.0 mi West 17.3 mph 23.0 mph N/A Snow Light Snow
11:40 PM 34.9 °F 25.3 °F 32.0 °F 89% 30.02 in 7.0 mi West 15.0 mph 23.0 mph N/A Snow Light Snow
11:58 PM 34.9 °F 25.3 °F 31.3 °F 87% 30.03 in 10.0 mi West 15.0 mph 21.9 mph N/A   Overcast